Theta_e
302 303 316 319 320 317 318 316 316 319 317 315 310 313 317 317 321 323 322 326 333 334 335 340 340 340 340 340 338 337 336 332 333 333 336 335 338 339 337 335 333 331 335 333 331 329 331 324 321
303 304 314 314 309 313 311 313 316 315 313 308 308 312 315 317 318 319 320 325 333 334 334 339 339 340 340 340 339 337 336 333 332 333 335 336 337 339 338 336 335 334 335 332 330 327 326 323 320
303 305 309 310 305 305 304 305 311 307 307 307 307 309 312 314 313 316 313 323 330 336 335 339 338 340 340 340 339 337 335 331 333 333 335 335 337 339 339 338 336 335 334 334 329 324 325 320 316
303 305 305 303 305 304 301 305 304 302 305 305 303 305 311 311 313 313 313 313 328 333 338 339 339 339 339 339 340 338 336 331 331 334 334 335 337 339 339 338 337 336 334 333 328 322 324 318 314
302 304 299 301 300 301 304 305 301 300 301 302 303 305 310 306 308 308 308 310 318 326 333 335 337 339 339 339 339 340 337 334 333 332 333 335 337 339 339 338 337 335 333 332 324 320 320 316 312
300 299 297 298 298 300 298 299 299 298 300 301 301 302 307 303 303 304 305 305 307 311 323 330 336 337 338 338 338 338 338 337 335 332 331 334 337 339 339 338 336 334 331 328 319 315 315 314 311
297 296 296 296 296 297 298 300 298 298 299 300 301 302 306 303 302 302 302 302 303 304 305 313 326 329 335 336 337 337 338 337 337 334 334 334 335 337 338 338 335 332 328 322 316 313 313 313 313
300 295 297 296 296 298 298 300 300 300 300 301 301 300 301 301 301 301 301 302 302 302 303 304 306 313 318 326 332 336 336 337 337 336 335 336 336 336 337 335 333 330 324 318 315 313 313 311 324
300 297 297 297 296 297 298 299 300 300 299 300 301 300 298 299 300 301 302 302 302 302 302 303 304 303 304 305 313 324 329 333 336 337 336 335 336 336 335 334 333 327 320 316 319 313 312 313 322
298 296 297 296 297 298 299 299 299 299 299 299 298 299 300 299 300 300 301 301 301 302 302 302 302 303 303 303 304 306 312 319 323 330 335 336 336 335 335 334 331 329 320 320 320 317 320 326 328
298 297 297 298 299 299 299 298 299 298 298 296 296 296 297 297 298 299 300 300 301 301 301 301 302 303 303 305 303 303 304 306 310 318 326 332 334 335 334 333 330 328 321 326 329 318 325 327 329
298 298 298 298 299 299 298 299 298 298 295 295 294 294 296 297 296 296 298 299 300 301 301 301 301 302 303 306 303 302 302 303 304 307 311 319 332 332 333 333 329 326 321 327 330 322 322 325 329
298 297 299 299 299 299 298 297 298 294 294 294 295 295 296 296 297 296 296 297 298 299 300 301 301 301 301 302 312 307 302 302 303 303 306 309 314 326 328 333 330 327 322 326 331 326 322 322 328
298 298 298 299 299 298 296 296 296 294 293 293 293 293 293 294 296 297 296 297 298 299 300 301 301 301 301 301 302 307 302 302 302 302 303 305 308 314 321 331 331 329 324 322 330 330 323 322 327
298 298 297 296 296 297 295 296 296 291 291 291 290 290 290 291 293 295 296 296 297 298 299 300 301 301 301 301 301 301 302 301 301 301 301 302 304 311 321 327 329 330 325 325 325 326 327 324 325
296 296 296 296 296 296 295 296 293 290 290 289 289 288 289 290 290 292 295 296 297 298 299 300 300 301 301 301 301 301 301 301 301 301 301 301 302 309 326 328 328 330 328 328 326 325 327 326 326
295 297 296 296 295 295 295 295 293 291 289 288 288 287 287 288 290 291 293 294 296 296 298 300 299 300 301 301 301 301 301 301 301 301 300 300 301 304 316 327 326 325 330 328 328 326 325 325 326
298 297 296 297 295 294 295 295 292 291 288 287 287 286 286 286 287 288 290 292 295 296 298 299 298 300 300 301 301 301 301 301 301 301 300 300 300 303 314 323 326 327 327 327 326 327 326 326 326
296 297 297 296 295 294 294 294 293 290 288 287 286 285 284 284 286 287 288 289 293 295 297 298 299 299 300 301 301 301 301 301 301 301 300 300 300 303 310 322 326 325 328 327 325 323 324 326 326
298 298 296 295 294 294 293 294 290 291 288 287 286 285 284 283 285 287 287 287 291 293 295 296 298 300 302 302 301 301 301 301 301 301 300 300 301 302 307 316 323 326 325 323 325 324 324 324 325
297 297 296 296 295 293 294 292 290 290 289 288 285 284 283 282 283 284 285 285 288 291 294 295 296 299 301 302 302 301 301 301 301 301 301 301 303 303 309 318 322 324 325 326 325 325 324 322 323
292 295 294 294 291 295 290 294 291 290 289 287 284 282 281 282 282 283 283 285 287 289 291 294 295 298 300 302 302 302 301 301 301 301 301 302 307 310 311 320 325 327 328 327 326 326 326 325 325
294 294 292 293 290 290 295 292 290 287 289 286 283 281 280 281 281 282 283 284 285 288 290 292 294 295 299 301 302 302 301 301 302 303 302 304 314 316 319 323 325 326 326 328 326 325 325 325 324
293 291 293 290 292 288 290 294 293 287 284 283 281 280 280 281 281 282 283 284 286 287 289 292 295 295 296 300 302 303 302 303 306 308 307 312 316 321 323 322 324 326 325 325 325 322 324 324 321
290 288 289 293 290 291 293 294 293 283 283 280 279 278 280 280 280 281 282 284 285 287 288 290 293 295 295 297 299 303 304 305 306 306 307 311 314 317 321 324 324 325 324 324 323 324 324 323 321
292 286 289 293 291 291 292 294 294 282 282 280 279 279 280 280 280 280 282 283 284 285 286 288 290 293 294 296 299 301 303 305 305 306 307 309 313 314 318 320 321 322 324 323 322 322 321 321 321
292 291 290 285 285 289 292 293 287 286 284 280 278 279 279 279 280 280 281 283 284 284 285 286 288 291 293 295 297 299 301 302 306 306 307 308 310 312 313 315 315 317 322 321 321 319 320 318 314
292 291 290 287 289 289 291 294 295 287 284 281 277 279 279 279 279 280 281 282 283 283 284 285 287 289 291 292 295 296 298 301 304 304 305 305 307 308 310 312 307 308 318 317 314 312 310 311 310
290 290 291 289 289 289 291 292 284 284 281 279 278 279 279 278 278 279 280 281 282 283 284 285 287 288 289 290 291 293 295 297 299 301 301 301 302 305 307 309 303 298 304 307 307 306 306 307 305
288 283 284 288 289 289 290 289 280 281 279 278 279 279 279 278 278 278 280 281 282 282 283 284 284 285 286 287 289 290 293 295 297 298 296 296 300 302 303 301 299 304 300 302 301 300 296 296 291
Wind_Speed
4 5 12 9 3 3 3 6 1 3 1 1 15 6 6 7 3 2 6 10 8 8 6 6 8 11 13 14 18 20 21 24 23 22 22 21 20 21 21 20 20 21 20 15 11 11 12 10 11
3 8 10 4 4 2 4 4 7 1 6 13 6 6 1 3 4 9 9 10 7 6 6 7 10 13 13 14 16 19 21 24 24 23 22 22 22 23 22 22 21 20 19 15 12 13 13 11 11
3 9 5 3 3 5 4 3 2 4 9 5 4 4 3 3 3 5 9 11 9 7 7 8 12 15 15 16 16 17 21 24 25 25 24 23 23 25 23 23 22 21 19 17 14 14 14 13 14
5 5 5 3 7 5 4 2 3 7 2 2 13 6 3 2 3 4 8 10 9 8 6 7 15 18 16 16 17 17 19 23 25 24 25 25 25 26 25 25 23 21 19 19 16 16 16 15 16
6 3 3 1 5 4 3 5 6 4 7 9 12 4 3 2 3 4 5 7 8 9 6 11 14 16 16 16 17 17 18 21 23 24 25 27 27 27 26 26 24 21 20 20 18 17 16 17 18
4 3 2 3 4 2 4 9 6 5 7 15 11 9 3 2 5 3 4 4 6 7 7 6 12 17 18 17 18 19 19 19 21 24 25 26 29 28 27 26 24 23 22 22 19 18 17 19 21
6 4 2 2 4 4 1 8 3 3 9 3 12 4 4 4 4 4 5 5 4 6 6 8 8 7 12 14 18 19 21 22 21 24 25 26 28 29 29 27 25 24 23 22 20 19 20 23 24
4 3 2 2 1 5 1 7 5 4 5 14 3 1 5 24 25 18 12 10 7 6 7 5 5 7 7 8 11 15 15 18 26 24 26 26 26 28 29 27 26 25 24 23 21 21 25 27 26
4 4 2 4 4 3 3 6 5 10 13 12 10 14 17 19 25 28 27 19 15 11 10 9 8 6 6 7 7 8 10 15 17 21 27 27 27 28 28 27 26 25 25 23 21 23 26 28 28
4 3 6 3 3 3 5 4 15 6 11 13 16 18 26 27 27 26 23 26 25 21 15 15 13 12 11 7 9 8 9 8 10 18 24 25 28 30 32 31 28 26 26 24 21 23 27 27 27
1 4 1 2 5 4 4 6 4 5 3 3 14 22 20 21 17 17 19 19 22 24 22 19 17 17 14 17 12 12 12 11 9 9 12 19 26 29 29 26 25 26 27 26 24 24 27 30 29
2 2 3 5 8 7 6 7 4 8 4 8 9 14 16 20 21 16 17 18 19 20 22 22 21 19 20 22 16 18 17 16 13 12 11 11 12 14 22 26 28 28 31 31 30 29 30 30 28
2 3 6 15 22 13 8 6 7 2 6 10 14 17 19 19 23 21 17 16 17 18 18 19 21 21 20 22 30 25 22 21 19 16 15 13 12 13 16 26 36 35 33 35 34 32 32 32 29
2 9 16 12 10 4 5 7 5 2 13 14 16 18 18 20 22 24 23 18 16 16 15 15 17 19 19 18 18 27 25 22 22 22 19 18 16 14 16 18 25 41 37 36 37 33 33 34 31
5 5 6 3 2 2 11 3 1 7 11 15 17 19 19 18 19 21 21 23 19 16 15 14 14 17 19 19 18 18 21 19 20 21 22 22 20 16 12 14 23 33 36 31 37 36 35 35 33
4 1 5 2 3 1 4 6 3 4 9 12 17 20 21 18 18 18 19 19 20 19 16 14 14 14 19 19 19 18 18 18 16 19 20 20 21 19 16 16 19 28 30 39 42 40 36 35 35
4 6 6 7 4 0 2 8 3 2 6 10 15 20 21 22 18 17 15 14 18 19 17 14 14 14 16 18 17 15 17 18 16 17 18 19 19 20 20 23 25 27 35 31 36 36 39 36 35
9 8 5 13 2 0 8 16 4 2 5 10 15 20 21 22 22 21 17 13 13 16 14 12 12 14 14 17 17 14 15 15 16 18 20 18 17 19 20 23 25 31 31 33 29 27 32 40 35
6 9 17 15 9 3 8 8 7 2 3 11 15 18 19 20 23 19 18 15 10 9 11 7 6 11 14 16 16 17 17 18 19 20 18 18 17 18 19 24 24 23 22 26 23 22 25 32 35
9 15 11 7 2 5 9 12 5 3 2 8 11 17 19 22 25 23 21 17 11 10 10 7 7 6 10 11 15 18 18 17 19 18 18 19 19 19 19 22 29 27 28 27 22 23 21 19 29
9 7 6 13 10 7 5 7 1 3 5 9 13 16 17 21 24 27 25 22 15 12 12 9 9 8 8 11 13 15 17 17 18 19 19 19 19 20 20 21 26 27 26 29 26 26 26 32 37
6 5 11 14 2 3 2 4 2 2 3 7 17 20 21 22 24 25 26 24 20 17 14 9 10 7 6 8 11 13 15 17 16 19 21 19 18 19 20 23 23 27 27 25 26 25 29 37 39
10 16 8 4 3 2 2 1 4 2 3 12 17 20 20 21 23 25 26 24 21 18 17 10 8 7 4 6 9 11 13 15 14 14 17 16 14 18 20 23 21 25 24 30 26 26 28 38 40
11 4 1 3 1 3 3 2 4 2 3 7 15 19 20 21 21 23 23 22 22 19 18 13 8 7 4 3 6 8 10 12 13 11 12 11 11 13 20 26 22 27 25 27 29 26 34 32 36
7 5 4 6 4 4 2 3 7 4 5 3 11 20 20 19 20 22 25 26 24 22 19 15 10 7 6 3 2 5 7 9 9 10 9 8 9 11 17 25 26 25 28 29 22 25 28 35 33
3 2 4 5 3 6 4 5 4 5 7 6 16 14 15 18 20 21 23 24 24 23 22 19 15 11 8 5 2 1 5 5 6 6 6 6 7 10 14 24 27 33 28 27 22 20 27 21 24
3 4 2 2 2 3 3 4 3 4 5 8 18 13 18 19 19 20 21 21 22 22 21 19 16 13 9 5 3 1 3 4 4 5 5 6 9 12 14 18 27 27 27 24 23 23 28 25 21
1 4 1 2 4 5 6 5 3 3 9 12 12 15 19 18 18 18 19 20 19 19 17 16 16 14 10 6 5 6 6 6 6 7 9 11 13 14 15 22 23 26 29 26 28 30 29 29 28
1 1 1 2 3 3 4 6 4 4 4 8 11 17 19 18 16 16 16 16 16 15 14 15 14 11 9 7 9 10 13 12 12 14 17 17 17 16 15 14 22 35 38 36 37 35 31 27 27
2 5 3 3 4 3 2 7 4 5 4 4 13 16 15 13 13 13 13 13 14 13 12 13 11 11 10 10 12 16 18 18 19 21 24 26 27 29 31 34 37 34 34 34 33 33 31 29 29
Wind_Direction
30 103 138 138 92 63 244 257 310 286 353 170 320 260 267 304 277 258 331 327 316 308 279 198 194 205 206 206 201 200 203 203 204 200 197 194 191 191 186 185 182 182 187 198 207 185 194 188 187
77 129 137 115 107 172 247 246 246 230 308 321 321 327 320 293 303 309 326 326 315 294 274 205 193 205 210 215 209 204 205 202 205 204 201 201 199 198 190 189 186 190 198 203 205 193 191 186 182
106 148 130 99 125 201 221 220 288 321 321 348 4 339 322 280 323 321 336 343 322 298 261 223 191 196 205 216 214 210 209 204 203 205 206 206 205 203 199 196 193 198 202 203 207 221 188 187 186
137 137 80 124 215 249 212 162 318 325 334 360 360 298 298 328 291 320 329 342 345 319 287 238 205 198 206 221 219 214 213 211 210 208 208 211 212 211 205 202 202 204 207 210 214 222 195 189 181
157 117 86 249 253 270 256 299 329 322 310 309 336 283 275 251 259 275 297 326 342 335 290 245 223 219 216 214 220 221 217 216 217 215 211 214 217 215 210 205 206 211 215 217 214 217 197 187 179
96 91 89 225 248 248 315 346 325 4 338 331 352 324 232 47 233 268 288 303 320 329 324 305 252 228 230 219 221 218 218 219 219 219 218 217 219 217 213 211 213 218 219 222 219 218 199 187 180
117 105 206 222 279 302 312 357 65 344 325 289 338 283 310 234 334 309 302 293 298 316 327 319 292 279 234 219 222 225 225 219 219 215 219 222 225 224 220 217 221 225 227 224 222 214 195 188 182
97 83 60 249 239 266 355 354 332 343 292 309 317 270 312 315 296 299 297 283 263 271 296 297 310 303 311 282 223 220 220 225 224 222 219 221 227 228 225 224 227 228 226 224 225 210 194 188 183
95 70 211 245 169 273 347 9 322 315 279 288 306 305 306 294 292 292 289 282 273 259 257 269 264 278 282 303 296 264 250 247 238 233 228 226 228 230 233 229 228 225 225 223 222 206 195 189 188
85 132 218 208 208 253 302 317 309 298 292 288 298 285 297 305 305 305 298 291 288 282 272 265 266 260 265 258 276 276 265 256 255 248 231 237 236 234 231 228 225 223 221 220 217 205 197 191 193
99 202 187 278 281 281 276 297 267 265 259 297 310 320 326 324 322 313 299 289 285 283 277 276 271 269 270 270 277 276 277 272 269 258 246 242 240 246 250 213 226 224 219 216 214 207 203 201 198
340 278 238 273 299 299 285 277 257 256 310 295 301 310 320 320 327 324 309 296 280 268 270 268 266 268 271 260 286 286 281 273 264 262 265 255 232 252 258 217 221 227 219 217 214 207 209 208 205
151 283 304 290 299 292 281 256 250 162 327 319 311 313 315 317 317 317 313 301 293 276 263 259 259 259 264 274 263 275 281 274 268 260 256 256 255 235 233 240 229 223 221 221 218 212 209 210 208
265 278 279 287 285 278 340 287 271 245 337 328 329 329 325 315 303 304 310 302 293 284 269 254 251 250 247 250 251 262 267 263 262 260 257 254 254 246 228 232 241 220 211 220 225 220 213 211 211
282 306 315 250 311 289 354 295 230 335 344 345 342 336 332 321 309 299 302 305 302 290 277 262 243 238 236 231 231 227 249 258 251 251 255 255 249 245 225 235 225 231 213 222 228 230 219 214 214
341 62 348 255 48 350 55 270 225 333 343 350 343 342 334 327 317 303 293 297 296 295 286 268 254 241 231 228 220 232 242 252 252 250 251 256 249 242 216 210 225 220 224 233 224 224 226 222 217
13 281 281 307 177 310 185 275 193 310 359 360 349 347 343 331 321 312 302 303 295 299 291 282 255 245 228 225 232 238 254 256 258 255 248 252 247 238 232 212 214 224 226 223 228 226 225 226 222
298 307 265 285 262 136 262 257 220 287 16 359 355 347 342 340 336 329 320 324 307 296 291 284 259 247 235 225 230 237 238 253 259 259 251 248 246 236 240 220 223 219 228 226 228 222 232 224 222
262 265 272 277 271 276 255 266 261 243 357 2 1 346 339 341 342 339 332 338 328 298 285 288 273 242 236 223 225 238 245 253 259 260 259 255 251 236 233 218 219 220 209 220 229 231 228 224 226
282 281 281 279 223 297 279 277 219 196 119 27 1 340 338 343 351 348 346 345 351 339 319 309 278 241 223 222 222 236 251 261 266 263 257 253 249 232 227 229 225 226 216 216 216 208 193 226 211
305 245 302 293 319 274 282 288 299 211 167 17 3 343 343 346 347 349 349 351 354 353 340 313 301 252 225 223 227 236 253 263 270 261 256 254 246 233 227 225 228 232 222 223 218 217 206 205 210
309 202 314 300 10 292 96 287 271 174 264 12 348 350 343 344 351 352 351 355 2 358 351 329 299 278 238 227 229 240 255 264 268 265 259 252 242 234 228 225 237 227 225 221 213 221 226 229 207
249 326 302 288 168 24 200 33 266 25 334 334 338 342 343 344 349 354 356 357 1 4 2 353 330 304 262 227 232 244 260 269 265 256 260 248 243 231 224 219 230 223 217 215 215 232 235 213 204
309 348 264 37 99 13 247 134 269 213 226 310 329 339 343 345 349 355 359 1 5 9 7 5 346 335 315 261 239 250 259 254 244 246 263 251 240 228 216 218 222 223 216 218 214 211 216 204 192
8 357 341 355 7 240 240 237 261 198 220 240 320 334 348 345 351 357 3 6 8 9 9 9 2 349 354 348 298 241 259 248 229 242 248 250 230 217 206 201 203 219 212 209 203 218 212 205 204
343 103 130 270 315 294 298 240 284 200 220 289 340 340 345 355 357 3 8 7 8 9 10 12 13 11 16 25 20 357 264 244 202 235 231 224 217 206 193 192 194 193 203 199 208 210 203 209 205
299 44 199 106 229 303 249 260 160 230 271 316 339 342 352 357 3 9 10 11 8 9 10 11 14 18 21 29 60 120 175 170 189 214 206 191 179 165 172 186 164 165 185 186 196 193 184 177 161
139 154 77 40 11 311 297 287 259 321 337 328 330 334 346 357 5 13 15 15 14 11 12 18 18 23 28 42 90 111 116 128 135 149 155 155 158 160 159 176 159 146 167 167 163 151 138 134 128
335 329 101 126 149 209 305 280 180 196 263 305 316 335 343 352 7 17 22 21 21 19 18 25 28 37 55 78 99 112 108 114 125 132 131 136 138 142 162 160 137 128 129 133 131 126 125 126 119
138 187 160 129 249 227 238 276 185 172 234 310 334 336 343 352 12 24 26 28 30 35 35 40 46 51 64 86 106 112 112 115 121 121 123 125 123 129 127 126 121 114 115 116 112 111 108 107 107